When you browse on this site, cookies collect data to enhance your experience and personalize the content and advertising you see.
Visit our Privacy Policy to learn more. By continuing to use the site, you agree to this use of cookies and data.
  • In United Kingdom
  • List of Countries
  • For 7 days
  • Water Temperature
  • Satellite Maps
  • Weather Map
  • Weather Widgets
  • user-avatar
    Login

    Hourly Weather Eshonguzar

    Today, 21 June, Friday

    Time Temperature Precipitation Wind Pressure Humidity
    00:00 +26°C° 0 mm 1 mps 720 mmHg 21%
    01:00 +26°C° 0 mm 1 mps 720 mmHg 22%
    02:00 +25°C° 0 mm 2 mps 720 mmHg 23%
    03:00 +25°C° 0 mm 1 mps 720 mmHg 25%
    04:00 +25°C° 0 mm 1 mps 720 mmHg 26%
    05:00 +24°C° 0 mm 1 mps 720 mmHg 27%
    06:00 +26°C° 0 mm 1 mps 720 mmHg 25%
    07:00 +28°C° 0 mm 1 mps 721 mmHg 23%
    08:00 +30°C° 0 mm 2 mps 721 mmHg 21%
    09:00 +32°C° 0 mm 2 mps 721 mmHg 19%
    10:00 +35°C° 0 mm 2 mps 721 mmHg 17%
    11:00 +37°C° 0 mm 2 mps 721 mmHg 14%
    12:00 +38°C° 0 mm 2 mps 721 mmHg 14%
    13:00 +38°C° 0 mm 2 mps 720 mmHg 14%
    14:00 +39°C° 0 mm 2 mps 720 mmHg 13%
    15:00 +39°C° 0 mm 2 mps 720 mmHg 13%
    16:00 +39°C° 0 mm 3 mps 720 mmHg 12%
    17:00 +39°C° 0 mm 3 mps 720 mmHg 12%
    18:00 +37°C° 0 mm 3 mps 720 mmHg 13%
    19:00 +35°C° 0 mm 3 mps 719 mmHg 14%
    20:00 +33°C° 0 mm 3 mps 719 mmHg 15%
    21:00 +31°C° 0 mm 3 mps 719 mmHg 16%
    22:00 +29°C° 0 mm 2 mps 720 mmHg 16%
    23:00 +28°C° 0 mm 2 mps 720 mmHg 17%

    Tomorrow, 22 June, Saturday

    Time Temperature Precipitation Wind Pressure Humidity
    00:00 +28°C° 0 mm 2 mps 720 mmHg 18%
    01:00 +27°C° 0 mm 1 mps 720 mmHg 20%
    02:00 +26°C° 0 mm 1 mps 720 mmHg 21%
    03:00 +25°C° 0 mm 1 mps 720 mmHg 22%
    04:00 +25°C° 0 mm 1 mps 720 mmHg 23%
    05:00 +24°C° 0 mm 1 mps 720 mmHg 25%
    06:00 +26°C° 0 mm 1 mps 720 mmHg 23%
    07:00 +28°C° 0 mm 1 mps 721 mmHg 22%
    08:00 +30°C° 0 mm 2 mps 721 mmHg 21%
    09:00 +32°C° 0 mm 2 mps 721 mmHg 19%
    10:00 +34°C° 0 mm 2 mps 722 mmHg 17%
    11:00 +36°C° 0 mm 2 mps 722 mmHg 14%
    12:00 +37°C° 0 mm 2 mps 722 mmHg 13%
    13:00 +39°C° 0 mm 3 mps 722 mmHg 11%
    14:00 +40°C° 0 mm 3 mps 722 mmHg 10%
    15:00 +40°C° 0 mm 4 mps 722 mmHg 10%
    16:00 +40°C° 0 mm 5 mps 721 mmHg 11%
    17:00 +40°C° 0 mm 5 mps 721 mmHg 11%
    18:00 +38°C° 0 mm 6 mps 722 mmHg 13%
    19:00 +35°C° 0 mm 6 mps 722 mmHg 15%
    20:00 +33°C° 0 mm 6 mps 722 mmHg 18%
    21:00 +32°C° 0 mm 6 mps 722 mmHg 19%
    22:00 +30°C° 0 mm 6 mps 722 mmHg 20%
    23:00 +29°C° 0 mm 6 mps 722 mmHg 21%

    Day after tomorrow, 23 June, Sunday

    Time Temperature Precipitation Wind Pressure Humidity
    00:00 +28°C° 0 mm 5 mps 722 mmHg 22%
    01:00 +27°C° 0 mm 4 mps 722 mmHg 23%
    02:00 +26°C° 0 mm 4 mps 722 mmHg 25%
    03:00 +25°C° 0 mm 3 mps 722 mmHg 26%
    04:00 +25°C° 0 mm 3 mps 722 mmHg 27%
    05:00 +24°C° 0 mm 2 mps 722 mmHg 29%
    06:00 +25°C° 0 mm 2 mps 722 mmHg 27%
    07:00 +27°C° 0 mm 3 mps 723 mmHg 26%
    08:00 +28°C° 0 mm 3 mps 723 mmHg 25%
    09:00 +30°C° 0 mm 3 mps 723 mmHg 23%
    10:00 +33°C° 0 mm 3 mps 723 mmHg 21%
    11:00 +35°C° 0 mm 3 mps 723 mmHg 19%
    12:00 +36°C° 0 mm 3 mps 723 mmHg 17%
    13:00 +37°C° 0 mm 2 mps 723 mmHg 15%
    14:00 +38°C° 0 mm 2 mps 723 mmHg 13%
    15:00 +38°C° 0 mm 2 mps 723 mmHg 13%
    16:00 +39°C° 0 mm 1 mps 723 mmHg 12%
    17:00 +39°C° 0 mm 1 mps 723 mmHg 12%
    18:00 +37°C° 0 mm 2 mps 723 mmHg 15%
    19:00 +35°C° 0 mm 2 mps 723 mmHg 17%
    20:00 +32°C° 0 mm 2 mps 723 mmHg 20%
    21:00 +31°C° 0 mm 2 mps 723 mmHg 22%
    22:00 +29°C° 0 mm 2 mps 723 mmHg 24%
    23:00 +28°C° 0 mm 2 mps 723 mmHg 25%

    24 June, Monday

    Time Temperature Precipitation Wind Pressure Humidity
    00:00 +28°C° 0 mm 2 mps 723 mmHg 28%
    01:00 +27°C° 0 mm 2 mps 722 mmHg 30%
    02:00 +26°C° 0 mm 1 mps 722 mmHg 32%
    03:00 +26°C° 0 mm 1 mps 722 mmHg 33%
    04:00 +25°C° 0 mm 1 mps 722 mmHg 33%
    05:00 +25°C° 0 mm 1 mps 722 mmHg 34%
    06:00 +27°C° 0 mm 1 mps 722 mmHg 32%
    07:00 +28°C° 0 mm 1 mps 723 mmHg 29%
    08:00 +30°C° 0 mm 1 mps 723 mmHg 27%
    09:00 +32°C° 0 mm 1 mps 723 mmHg 25%
    10:00 +35°C° 0 mm 2 mps 723 mmHg 23%
    11:00 +36°C° 0 mm 2 mps 723 mmHg 20%
    12:00 +37°C° 0 mm 3 mps 722 mmHg 19%
    13:00 +38°C° 0 mm 3 mps 722 mmHg 17%
    14:00 +39°C° 0 mm 3 mps 722 mmHg 15%
    15:00 +39°C° 0 mm 3 mps 722 mmHg 16%
    16:00 +38°C° 0 mm 4 mps 722 mmHg 17%
    17:00 +38°C° 0 mm 4 mps 722 mmHg 17%
    18:00 +35°C° 0 mm 4 mps 722 mmHg 22%
    19:00 +33°C° 0 mm 4 mps 722 mmHg 26%
    20:00 +29°C° 0 mm 4 mps 722 mmHg 30%
    21:00 +29°C° 0 mm 4 mps 721 mmHg 30%
    22:00 +28°C° 0 mm 3 mps 721 mmHg 31%
    23:00 +27°C° 0 mm 3 mps 721 mmHg 31%

    25 June, Tuesday

    Time Temperature Precipitation Wind Pressure Humidity
    00:00 +27°C° 0 mm 3 mps 721 mmHg 31%
    01:00 +27°C° 0 mm 3 mps 720 mmHg 31%
    02:00 +26°C° 0 mm 3 mps 720 mmHg 31%
    03:00 +26°C° 0 mm 2 mps 720 mmHg 32%
    04:00 +25°C° 0 mm 2 mps 720 mmHg 32%
    05:00 +25°C° 0 mm 2 mps 720 mmHg 33%
    06:00 +27°C° 0 mm 2 mps 720 mmHg 30%
    07:00 +29°C° 0 mm 2 mps 720 mmHg 27%
    08:00 +31°C° 0 mm 2 mps 721 mmHg 25%
    09:00 +34°C° 0 mm 2 mps 721 mmHg 22%
    10:00 +36°C° 0 mm 3 mps 721 mmHg 19%
    11:00 +37°C° 0 mm 3 mps 721 mmHg 17%
    12:00 +38°C° 0 mm 3 mps 721 mmHg 15%
    13:00 +39°C° 0 mm 3 mps 721 mmHg 13%
    14:00 +40°C° 0 mm 3 mps 720 mmHg 11%
    15:00 +40°C° 0 mm 3 mps 720 mmHg 10%
    16:00 +40°C° 0 mm 3 mps 720 mmHg 9%
    17:00 +40°C° 0 mm 3 mps 720 mmHg 8%
    18:00 +38°C° 0 mm 3 mps 720 mmHg 11%
    19:00 +35°C° 0 mm 3 mps 720 mmHg 13%
    20:00 +33°C° 0 mm 4 mps 720 mmHg 15%
    21:00 +30°C° 0 mm 3 mps 720 mmHg 19%
    22:00 +29°C° 0 mm 3 mps 720 mmHg 22%
    23:00 +27°C° 0 mm 3 mps 720 mmHg 25%

    26 June, Wednesday

    Time Temperature Precipitation Wind Pressure Humidity
    00:00 +27°C° 0 mm 3 mps 720 mmHg 27%
    01:00 +27°C° 0 mm 3 mps 719 mmHg 28%
    02:00 +26°C° 0 mm 3 mps 719 mmHg 30%
    03:00 +26°C° 0 mm 3 mps 719 mmHg 30%
    04:00 +25°C° 0 mm 3 mps 719 mmHg 31%
    05:00 +25°C° 0 mm 3 mps 719 mmHg 32%
    06:00 +27°C° 0 mm 3 mps 719 mmHg 29%
    07:00 +28°C° 0 mm 3 mps 720 mmHg 26%
    08:00 +30°C° 0 mm 3 mps 720 mmHg 24%
    09:00 +33°C° 0 mm 4 mps 720 mmHg 20%
    10:00 +36°C° 0 mm 4 mps 720 mmHg 17%
    11:00 +38°C° 0 mm 4 mps 720 mmHg 14%
    12:00 +40°C° 0 mm 4 mps 720 mmHg 12%
    13:00 +41°C° 0 mm 4 mps 720 mmHg 11%
    14:00 +40°C° 0 mm 3 mps 719 mmHg 9%
    15:00 +42°C° 0 mm 3 mps 719 mmHg 9%
    16:00 +42°C° 0 mm 3 mps 719 mmHg 9%
    17:00 +41°C° 0 mm 2 mps 719 mmHg 8%
    18:00 +38°C° 0 mm 2 mps 718 mmHg 10%
    19:00 +36°C° 0 mm 2 mps 718 mmHg 12%
    20:00 +34°C° 0 mm 2 mps 718 mmHg 14%
    21:00 +31°C° 0 mm 2 mps 718 mmHg 15%
    22:00 +30°C° 0 mm 2 mps 718 mmHg 16%
    23:00 +29°C° 0 mm 2 mps 718 mmHg 17%
    Show more